TimeEST,TemperatureF,Dew PointF,Humidity,Sea Level PressureIn,VisibilityMPH,Wind Direction,Wind SpeedMPH,Gust SpeedMPH,PrecipitationIn,Events,Conditions,WindDirDegrees,DateUTC
12:15 AM,64.4,60.8,88,29.78,10.0,SW,10.4,-,0.00,,Mostly Cloudy,220,2012-12-18 05:15:00
12:35 AM,64.4,60.8,88,29.78,10.0,SW,9.2,16.1,0.00,,Overcast,230,2012-12-18 05:35:00
12:55 AM,64.4,60.8,88,29.78,10.0,SW,10.4,-,0.00,,Mostly Cloudy,230,2012-12-18 05:55:00
1:15 AM,64.4,60.8,88,29.78,10.0,SW,10.4,17.3,0.00,,Overcast,230,2012-12-18 06:15:00
1:35 AM,64.4,60.8,88,29.77,10.0,SW,10.4,17.3,0.00,,Overcast,230,2012-12-18 06:35:00
1:55 AM,62.6,60.8,94,29.78,10.0,SW,8.1,-,0.00,,Overcast,230,2012-12-18 06:55:00
2:15 AM,62.6,59.0,88,29.78,10.0,SW,9.2,-,0.00,,Overcast,230,2012-12-18 07:15:00
2:35 AM,62.6,59.0,88,29.79,10.0,WSW,10.4,-,0.00,,Overcast,250,2012-12-18 07:35:00
2:55 AM,62.6,59.0,88,29.79,10.0,WSW,6.9,-,0.00,,Overcast,250,2012-12-18 07:55:00
3:15 AM,62.6,59.0,88,29.80,10.0,WSW,4.6,-,0.00,,Overcast,240,2012-12-18 08:15:00
3:35 AM,62.6,59.0,88,29.79,10.0,WSW,8.1,-,0.00,,Overcast,250,2012-12-18 08:35:00
4:15 AM,62.6,59.0,88,29.79,10.0,SW,4.6,-,0.00,,Overcast,230,2012-12-18 09:15:00
4:35 AM,62.6,59.0,88,29.78,10.0,SW,3.5,-,0.00,,Overcast,230,2012-12-18 09:35:00
4:55 AM,62.6,59.0,88,29.78,10.0,WSW,6.9,-,0.00,,Mostly Cloudy,250,2012-12-18 09:55:00
5:15 AM,60.8,57.2,88,29.79,10.0,WSW,6.9,-,0.00,,Partly Cloudy,250,2012-12-18 10:15:00
5:55 AM,60.8,57.2,88,29.80,10.0,WSW,5.8,-,0.00,,Clear,240,2012-12-18 10:55:00
6:15 AM,60.8,57.2,88,29.80,10.0,WSW,4.6,-,0.00,,Clear,240,2012-12-18 11:15:00
6:35 AM,59.0,57.2,94,29.80,10.0,SW,4.6,-,0.00,,Clear,220,2012-12-18 11:35:00
7:15 AM,59.0,57.2,94,29.81,10.0,SW,5.8,-,0.00,,Clear,230,2012-12-18 12:15:00
7:35 AM,59.0,57.2,94,29.82,10.0,SW,6.9,-,0.00,,Clear,230,2012-12-18 12:35:00
7:55 AM,59.0,57.2,94,29.83,9.0,WSW,6.9,-,0.00,,Clear,240,2012-12-18 12:55:00
8:15 AM,60.8,57.2,88,29.83,9.0,WSW,9.2,-,0.00,,Scattered Clouds,240,2012-12-18 13:15:00
8:35 AM,60.8,57.2,88,29.84,10.0,West,10.4,17.3,0.00,,Mostly Cloudy,260,2012-12-18 13:35:00
8:55 AM,60.8,57.2,88,29.84,10.0,West,11.5,16.1,0.00,,Mostly Cloudy,260,2012-12-18 13:55:00
9:15 AM,62.6,57.2,82,29.84,10.0,West,9.2,16.1,0.00,,Mostly Cloudy,260,2012-12-18 14:15:00
9:35 AM,62.6,55.4,77,29.84,10.0,West,10.4,18.4,0.00,,Scattered Clouds,260,2012-12-18 14:35:00
9:55 AM,62.6,55.4,77,29.85,10.0,West,13.8,17.3,0.00,,Scattered Clouds,280,2012-12-18 14:55:00
10:15 AM,64.4,55.4,73,29.84,10.0,West,12.7,18.4,0.00,,Mostly Cloudy,280,2012-12-18 15:15:00
10:35 AM,66.2,55.4,68,29.85,10.0,WSW,13.8,17.3,0.00,,Scattered Clouds,250,2012-12-18 15:35:00
10:55 AM,66.2,53.6,64,29.84,10.0,West,18.4,23.0,0.00,,Scattered Clouds,270,2012-12-18 15:55:00
11:15 AM,66.2,51.8,60,29.84,10.0,West,15.0,21.9,0.00,,Partly Cloudy,270,2012-12-18 16:15:00
11:35 AM,68.0,50.0,52,29.83,10.0,West,12.7,18.4,0.00,,Clear,260,2012-12-18 16:35:00
11:55 AM,66.2,46.4,49,29.82,10.0,West,16.1,24.2,0.00,,Clear,260,2012-12-18 16:55:00
12:15 PM,68.0,46.4,46,29.82,10.0,West,16.1,23.0,0.00,,Clear,260,2012-12-18 17:15:00
12:35 PM,68.0,42.8,40,29.81,10.0,West,16.1,23.0,0.00,,Clear,270,2012-12-18 17:35:00
12:55 PM,68.0,39.2,35,29.81,10.0,West,18.4,26.5,0.00,,Clear,260,2012-12-18 17:55:00
1:15 PM,68.0,39.2,35,29.81,10.0,West,16.1,27.6,0.00,,Clear,260,2012-12-18 18:15:00
1:35 PM,68.0,39.2,35,29.81,10.0,West,16.1,23.0,0.00,,Clear,270,2012-12-18 18:35:00
2:15 PM,69.8,32.0,25,29.81,10.0,West,20.7,26.5,0.00,,Clear,270,2012-12-18 19:15:00
2:55 PM,68.0,32.0,26,29.83,10.0,West,17.3,-,0.00,,Clear,280,2012-12-18 19:55:00
3:15 PM,68.0,32.0,26,29.84,10.0,West,20.7,27.6,0.00,,Clear,280,2012-12-18 20:15:00
3:35 PM,68.0,33.8,28,29.85,10.0,West,12.7,24.2,0.00,,Clear,270,2012-12-18 20:35:00
3:55 PM,66.2,33.8,30,29.86,10.0,West,13.8,24.2,0.00,,Clear,280,2012-12-18 20:55:00
4:15 PM,66.2,32.0,28,29.87,10.0,West,18.4,24.2,0.00,,Clear,270,2012-12-18 21:15:00
4:35 PM,64.4,32.0,30,29.87,10.0,WNW,18.4,24.2,0.00,,Clear,290,2012-12-18 21:35:00
4:55 PM,64.4,33.8,32,29.89,10.0,West,9.2,-,0.00,,Clear,270,2012-12-18 21:55:00
5:15 PM,62.6,32.0,32,29.90,10.0,West,12.7,19.6,0.00,,Clear,270,2012-12-18 22:15:00
5:35 PM,60.8,32.0,34,29.92,10.0,WNW,9.2,-,0.00,,Clear,290,2012-12-18 22:35:00
5:55 PM,57.2,33.8,41,29.93,10.0,WNW,4.6,-,0.00,,Clear,300,2012-12-18 22:55:00
6:15 PM,57.2,33.8,41,29.93,10.0,WNW,8.1,-,0.00,,Clear,300,2012-12-18 23:15:00
6:35 PM,57.2,33.8,41,29.94,10.0,Calm,Calm,-,0.00,,Clear,0,2012-12-18 23:35:00
6:55 PM,57.2,33.8,41,29.95,10.0,West,4.6,-,0.00,,Clear,270,2012-12-18 23:55:00
7:15 PM,55.4,33.8,44,29.96,10.0,Calm,Calm,-,0.00,,Clear,0,2012-12-19 00:15:00
7:35 PM,53.6,35.6,51,29.96,10.0,Calm,Calm,-,0.00,,Clear,0,2012-12-19 00:35:00
7:55 PM,51.8,35.6,54,29.97,10.0,West,4.6,-,0.00,,Clear,280,2012-12-19 00:55:00
8:15 PM,51.8,35.6,54,29.97,10.0,Calm,Calm,-,0.00,,Clear,0,2012-12-19 01:15:00
8:35 PM,48.2,37.4,66,29.98,10.0,Calm,Calm,-,0.00,,Clear,0,2012-12-19 01:35:00
9:15 PM,48.2,37.4,66,29.99,10.0,Calm,Calm,-,0.00,,Clear,0,2012-12-19 02:15:00
9:55 PM,48.2,35.6,62,30.00,10.0,Calm,Calm,-,0.00,,Clear,0,2012-12-19 02:55:00
10:15 PM,48.2,35.6,62,30.01,10.0,West,3.5,-,0.00,,Clear,270,2012-12-19 03:15:00
10:35 PM,46.4,35.6,66,30.01,10.0,Calm,Calm,-,0.00,,Clear,0,2012-12-19 03:35:00
10:55 PM,46.4,35.6,66,30.01,10.0,Calm,Calm,-,0.00,,Clear,0,2012-12-19 03:55:00
11:15 PM,46.4,35.6,66,30.01,10.0,Calm,Calm,-,0.00,,Clear,0,2012-12-19 04:15:00
11:55 PM,46.4,35.6,66,30.02,10.0,West,3.5,-,0.00,,Clear,270,2012-12-19 04:55:00